Location: Big Meadows
(38.5260°N, 78.4400°W)
Time: 01:17:08
(UTC-04:00)

H-2A R/B - Visible Passes

Search period start: 20 April 2018 00:00
Search period end: 30 April 2018 00:00
Orbit: 733 x 838 km, 98.3° (Epoch: 19 April)

Date Brightness Start Highest point End Pass type
(mag) Time Alt. Az. Time Alt. Az. Time Alt. Az.
20 Apr 1.9 22:07:50 64° ESE 22:08:19 68° ENE 22:13:17 10° N visible
20 Apr 4.6 23:48:27 12° W 23:48:27 12° W 23:50:10 10° WNW visible
21 Apr 2.7 21:36:33 31° E 21:37:36 34° ENE 21:42:04 10° N visible
21 Apr 3.7 23:17:10 25° W 23:17:10 25° W 23:21:08 10° NW visible
22 Apr 3.6 21:05:16 15° E 21:07:02 18° ENE 21:10:19 10° NNE visible
22 Apr 2.5 22:45:53 50° WSW 22:46:04 50° W 22:50:55 10° NNW visible
23 Apr 1.8 22:14:36 68° SE 22:15:12 80° ENE 22:20:11 10° N visible
24 Apr 2.5 21:43:19 34° ESE 21:44:28 40° ENE 21:49:04 10° N visible
24 Apr 3.9 23:23:56 21° W 23:23:59 21° W 23:27:45 10° NW visible
25 Apr 3.4 21:12:02 17° E 21:13:52 21° ENE 21:17:28 10° NNE visible
25 Apr 2.8 22:52:39 42° WSW 22:52:59 42° W 22:57:42 10° NNW visible
26 Apr 4.0 20:42:33 10° ENE 20:43:24 10° ENE 20:44:15 10° NE visible
26 Apr 1.8 22:21:22 66° S 22:22:06 87° W 22:27:04 10° NNW visible
27 Apr 2.3 21:50:05 38° ESE 21:51:20 46° ENE 21:56:03 10° N visible
27 Apr 4.1 23:30:42 18° W 23:30:57 18° W 23:34:17 10° NW visible
28 Apr 3.2 21:18:47 19° E 21:20:42 24° ENE 21:24:35 10° NNE visible
28 Apr 3.0 22:59:25 35° WSW 22:59:55 36° W 23:04:27 10° NNW visible
29 Apr 3.9 20:48:15 10° E 20:50:12 12° ENE 20:52:08 10° NE visible
29 Apr 2.0 22:28:08 59° SSW 22:28:59 74° WSW 22:33:56 10° NNW visible
